Change the Weather History Date:

Friday, April 25, 2014

  Actual Average Record
Temperature  
Mean Temperature 65 °F 64 °F  
Max Temperature 78 °F 76 °F 96 °F (1925)
Min Temperature 51 °F 52 °F 33 °F (1910)
Degree Days  
Heating Degree Days 0 3  
Month to date heating degree days 134 147  
Since 1 July heating degree days 3348 3060  
Cooling Degree Days 0 2  
Month to date cooling degree days 31 38  
Year to date cooling degree days 31 51  
Growing Degree Days 15 (Base 50)    
Moisture  
Dew Point 55 °F    
Average Humidity 63    
Maximum Humidity 87    
Minimum Humidity 38    
Precipitation  
Precipitation 0.00 in 0.15 in 2.21 in (1932)
Month to date precipitation 3.50 3.62  
Year to date precipitation 11.81 17.65  
Snow  
Snow 0.00 in - - ()
Month to date snowfall 0.0  
Since 1 July snowfall 1.4  
Snow Depth 0.00 in    
Sea Level Pressure  
Sea Level Pressure 29.89 in    
Wind  
Wind Speed 7 mph (West)    
Max Wind Speed 21 mph    
Max Gust Speed 26 mph    
Visibility 10 miles    
Events      
T = Trace of Precipitation, MM = Missing Value Source: NWS Daily Summary

Daily Weather History Graph

Daily Weather History Graph

Search for Another Location

Airport or City:

Trip Planner

Search our weather history database for the weather conditions in past years. The results will help you decide how hot, cold, wet, or windy it might be!

Date:

Astronomy

Apr. 25, 2014 Rise Set
Actual Time 6:06 AM CDT 7:30 PM CDT
Civil Twilight 5:40 AM CDT 7:57 PM CDT
Nautical Twilight 5:08 AM CDT 8:29 PM CDT
Astronomical Twilight 4:35 AM CDT 9:02 PM CDT
Moon 3:44 AM CDT (4/25) 4:01 PM CDT (4/25)
Length of Visible Light 14h 17m
Length of Day
13h 24m
Waning Crescent, 15% of the Moon is Illuminated
Apr 25
Waning Crescent
Apr 29
New
May 6
First Quarter
May 14
Full
May 21
Last Quarter

Hourly Weather History & Observations

Time (CDT) Temp. Dew Point Humidity Pressure Visibility Wind Dir Wind Speed Gust Speed Precip Events Conditions
12:53 AM 66.9 °F 62.1 °F 84% 29.77 in 7.0 mi South 3.5 mph - 0.01 in   Mostly Cloudy
1:41 AM 66.2 °F 60.8 °F 83% 29.77 in 8.0 mi South 8.1 mph - N/A   Overcast
1:53 AM 66.9 °F 61.0 °F 81% 29.75 in 8.0 mi South 10.4 mph - N/A   Overcast
2:53 AM 66.9 °F 61.0 °F 81% 29.74 in 9.0 mi SW 9.2 mph - N/A   Overcast
3:53 AM 66.9 °F 61.0 °F 81% 29.76 in 10.0 mi WSW 15.0 mph 19.6 mph N/A   Mostly Cloudy
4:00 AM 66.2 °F 60.8 °F 83% 29.79 in 10.0 mi WSW 15.0 mph - N/A   Mostly Cloudy
4:53 AM 64.9 °F 57.9 °F 78% 29.79 in 10.0 mi West 17.3 mph 23.0 mph N/A   Mostly Cloudy
5:28 AM 64.4 °F 57.2 °F 77% 29.82 in 10.0 mi West 18.4 mph 24.2 mph N/A   Mostly Cloudy
5:45 AM 62.6 °F 55.4 °F 77% 29.83 in 10.0 mi West 13.8 mph 21.9 mph N/A   Scattered Clouds
5:53 AM 63.0 °F 55.9 °F 78% 29.81 in 10.0 mi West 13.8 mph - N/A   Scattered Clouds
6:19 AM 62.6 °F 55.4 °F 77% 29.85 in 10.0 mi West 10.4 mph - N/A   Mostly Cloudy
6:53 AM 63.0 °F 55.9 °F 78% 29.85 in 10.0 mi West 11.5 mph - N/A   Overcast
7:45 AM 62.6 °F 55.4 °F 77% 29.90 in 10.0 mi WNW 13.8 mph - N/A   Overcast
7:53 AM 64.0 °F 55.9 °F 75% 29.89 in 10.0 mi WNW 16.1 mph 20.7 mph N/A   Overcast
8:53 AM 63.0 °F 55.0 °F 75% 29.91 in 10.0 mi WNW 11.5 mph - N/A   Overcast
9:40 AM 66.2 °F 55.4 °F 68% 29.95 in 10.0 mi WNW 15.0 mph 20.7 mph N/A   Overcast
9:53 AM 64.0 °F 55.0 °F 73% 29.95 in 10.0 mi West 13.8 mph - N/A   Overcast
10:27 AM 66.2 °F 57.2 °F 73% 29.97 in 10.0 mi West 13.8 mph - N/A   Overcast
10:53 AM 68.0 °F 55.9 °F 65% 29.96 in 10.0 mi WNW 11.5 mph - N/A   Overcast
11:27 AM 66.2 °F 55.4 °F 68% 29.99 in 10.0 mi WNW 12.7 mph - N/A   Overcast
11:44 AM 69.8 °F 55.4 °F 60% 29.99 in 10.0 mi West 10.4 mph - N/A   Mostly Cloudy
11:53 AM 69.1 °F 55.9 °F 63% 29.97 in 10.0 mi NW 11.5 mph - N/A   Mostly Cloudy
12:53 PM 71.1 °F 55.0 °F 57% 29.96 in 10.0 mi Variable 4.6 mph - N/A   Mostly Cloudy
1:53 PM 73.0 °F 54.0 °F 51% 29.96 in 10.0 mi NNW 9.2 mph - N/A   Clear
2:53 PM 75.9 °F 55.0 °F 48% 29.95 in 10.0 mi Variable 4.6 mph - N/A   Mostly Cloudy
3:53 PM 75.9 °F 55.0 °F 48% 29.94 in 10.0 mi West 5.8 mph - N/A   Scattered Clouds
4:53 PM 75.0 °F 52.0 °F 44% 29.94 in 10.0 mi NNW 4.6 mph - N/A   Partly Cloudy
5:53 PM 75.9 °F 48.9 °F 38% 29.94 in 10.0 mi North 4.6 mph - N/A   Clear
6:53 PM 73.0 °F 48.0 °F 41% 29.94 in 10.0 mi North 3.5 mph - N/A   Clear
7:53 PM 63.0 °F 50.0 °F 63% 29.94 in 10.0 mi Calm Calm - N/A   Clear
8:53 PM 61.0 °F 50.0 °F 67% 29.97 in 10.0 mi Calm Calm - N/A   Clear
9:53 PM 55.9 °F 48.9 °F 77% 29.99 in 10.0 mi Calm Calm - N/A   Clear
10:53 PM 55.0 °F 50.0 °F 83% 29.98 in 10.0 mi Calm Calm - N/A   Clear